TimeEDT,TemperatureF,Dew PointF,Humidity,Sea Level PressureIn,VisibilityMPH,Wind Direction,Wind SpeedMPH,Gust SpeedMPH,PrecipitationIn,Events,Conditions,WindDirDegrees,DateUTC
12:54 AM,51.8,44.6,76,30.29,10.0,WSW,15.0,-,N/A,,Clear,250,2013-05-19 04:54:00
1:54 AM,51.1,45.0,80,30.29,10.0,WSW,15.0,-,N/A,,Clear,250,2013-05-19 05:54:00
2:54 AM,48.9,45.0,86,30.29,10.0,West,12.7,-,N/A,,Clear,260,2013-05-19 06:54:00
3:54 AM,50.0,45.0,83,30.30,10.0,West,10.4,-,N/A,,Clear,260,2013-05-19 07:54:00
4:54 AM,50.0,45.0,83,30.30,10.0,West,9.2,-,N/A,,Clear,260,2013-05-19 08:54:00
5:54 AM,48.0,45.0,89,30.32,10.0,WSW,9.2,-,N/A,,Clear,250,2013-05-19 09:54:00
6:54 AM,48.9,46.0,90,30.34,10.0,WSW,8.1,-,N/A,,Clear,250,2013-05-19 10:54:00
7:54 AM,55.4,46.4,72,30.33,10.0,WSW,10.4,-,N/A,,Clear,240,2013-05-19 11:54:00
8:54 AM,59.0,48.9,69,30.35,10.0,West,9.2,-,N/A,,Partly Cloudy,260,2013-05-19 12:54:00
9:54 AM,62.1,48.0,60,30.34,10.0,SSW,5.8,-,N/A,,Clear,210,2013-05-19 13:54:00
10:54 AM,64.0,46.9,54,30.35,10.0,SSW,10.4,-,N/A,,Mostly Cloudy,200,2013-05-19 14:54:00
11:54 AM,64.0,46.9,54,30.34,10.0,SSW,10.4,-,N/A,,Mostly Cloudy,210,2013-05-19 15:54:00
12:54 PM,64.0,48.0,56,30.33,10.0,SSW,11.5,-,N/A,,Mostly Cloudy,200,2013-05-19 16:54:00
1:54 PM,64.0,46.9,54,30.31,10.0,SW,10.4,-,N/A,,Mostly Cloudy,220,2013-05-19 17:54:00
2:54 PM,62.6,48.2,59,30.29,10.0,SSW,13.8,-,N/A,,Overcast,200,2013-05-19 18:54:00
3:54 PM,60.8,50.0,68,30.29,10.0,SW,13.8,-,N/A,Rain,Light Rain,220,2013-05-19 19:54:00
4:54 PM,57.0,53.1,87,30.30,10.0,SW,10.4,-,0.01,Rain,Light Rain,220,2013-05-19 20:54:00
5:54 PM,55.0,53.1,93,30.30,10.0,SSW,8.1,-,0.01,Rain,Light Rain,200,2013-05-19 21:54:00
6:07 PM,55.0,53.1,93,30.28,10.0,South,10.4,-,0.00,Rain,Light Rain,190,2013-05-19 22:07:00
6:19 PM,54.0,52.0,93,30.28,10.0,SSW,10.4,-,0.00,Rain,Light Rain,200,2013-05-19 22:19:00
6:51 PM,53.6,51.8,94,30.28,8.0,SSW,9.2,-,0.01,Rain,Light Rain,200,2013-05-19 22:51:00
6:54 PM,53.1,52.0,96,30.30,9.0,SSW,9.2,-,0.01,Rain,Light Rain,200,2013-05-19 22:54:00
7:04 PM,53.1,52.0,96,30.28,9.0,South,6.9,-,0.00,Rain,Light Rain,190,2013-05-19 23:04:00
7:36 PM,53.1,52.0,96,30.27,7.0,South,4.6,-,0.01,Rain,Light Rain,190,2013-05-19 23:36:00
7:54 PM,53.1,53.1,100,30.28,8.0,South,4.6,-,0.02,Rain,Light Rain,190,2013-05-19 23:54:00
8:54 PM,53.1,53.1,100,30.27,7.0,South,8.1,-,0.01,,Overcast,180,2013-05-20 00:54:00
9:54 PM,53.1,53.1,100,30.26,4.0,South,10.4,-,0.01,,Overcast,170,2013-05-20 01:54:00
10:05 PM,53.1,53.1,100,30.25,2.5,South,9.2,-,N/A,,Overcast,180,2013-05-20 02:05:00
10:43 PM,53.1,53.1,100,30.24,4.0,South,10.4,-,0.00,Rain,Light Rain,180,2013-05-20 02:43:00
10:54 PM,53.1,53.1,100,30.24,6.0,South,9.2,-,0.00,Rain,Light Rain,180,2013-05-20 02:54:00
11:54 PM,53.6,53.6,100,30.21,4.0,South,9.2,-,N/A,Rain,Light Rain,180,2013-05-20 03:54:00